Location: Cortos
(41.2217°N, 3.6526°W)
Time: 11:48:15
(UTC+00:00)

Daily predictions for brighter satellites

Satellite Brightness Start Highest point End
(mag) Time Altitude Azimuth Time Altitude Azimuth Time Altitude Azimuth
Cosmos 372 Rocket 4.2 19:08:14 10° S 19:13:15 52° ESE 19:18:19 10° NNE
Meteor 1-24 Rocket 4.2 19:10:31 10° N 19:15:39 40° ENE 19:20:54 10° SE
CENTAUR R/B 3.6 19:08:56 10° NW 19:17:34 81° WSW 19:27:07 10° SSE
Cosmos 2219 Rocket 2.6 19:12:30 10° S 19:17:40 41° ESE 19:22:52 10° NE
Cosmos 1844 3.8 19:12:00 10° NNW 19:17:49 85° ENE 19:23:36 10° SSE
SPOT 5 3.5 19:15:06 10° SE 19:19:25 34° ENE 19:23:34 10° N
Cosmos 2074 Rocket 4.2 19:15:20 10° SSE 19:21:17 50° E 19:27:17 10° NNE
Cosmos 1937 Rocket 4.1 19:19:17 10° SSE 19:24:01 35° E 19:28:47 10° NE
Meteor 1-31 Rocket 3.8 19:21:38 10° ESE 19:24:28 23° ENE 19:27:19 10° NNE
NOAA 6 4.4 19:19:27 10° S 19:24:31 68° WSW 19:29:37 10° NNW
COSMOS 2428 4.0 19:31:32 10° SE 19:35:16 18° E 19:39:00 10° ENE
NOSS 2-2 (E) 3.8 19:32:50 10° NW 19:36:53 80° SW 19:42:34 10° SSE
USA 234 3.7 19:31:14 10° NE 19:37:44 69° NW 19:44:13 10° WSW
IRAS Rocket 4.4 19:32:25 10° SE 19:37:45 53° ENE 19:43:05 10° N
Cosmos 1953 1.9 19:34:13 10° S 19:37:46 83° E 19:41:23 10° N
Meteor 1-15 Rocket 4.2 19:32:21 10° S 19:37:50 65° E 19:43:21 10° NNE
CZ-4B R/B 4.3 19:35:07 11° ESE 19:39:28 27° ENE 19:44:02 10° N
CSL-04 Rocket 3.9 19:34:47 10° SSE 19:40:08 55° ENE 19:45:33 10° N
Cosmos 2278 Rocket 4.3 19:42:49 10° NNE 19:44:37 11° NE 19:46:24 10° ENE
Cosmos 2333 Rocket 3.6 19:40:53 10° SW 19:46:16 44° WNW 19:51:41 10° NNE
COBE Rocket 4.3 19:41:37 10° N 19:46:32 71° WNW 19:51:34 10° SSW
Iridium 82 4.0 19:48:19 10° N 19:51:19 59° E 19:54:13 10° SSE
SJ-6B 3.7 19:47:56 10° S 19:51:29 47° W 19:55:03 10° NNW
Cosmos 1470 Rocket 3.5 19:50:49 10° S 19:55:12 77° E 19:59:35 10° N
BREEZE-M DEB (TANK) 3.9 19:53:21 10° NW 19:55:18 20° N 19:58:03 10° NE
Cosmos 1703 Rocket 4.0 19:51:46 10° N 19:55:49 39° ENE 19:58:41 17° SE
Lacrosse 5 rocket 0.5 19:53:18 10° SW 19:56:30 65° SE 19:59:40 10° NE
Geosat 3.9 19:52:30 10° NNE 19:57:28 65° ESE 20:02:25 10° SSW
ARIANE 6 FM1 Upper Stage 3.5 19:53:42 10° SW 19:57:45 51° NW 20:01:44 10° NNE
NOSS 3-2 (A) 4.2 19:50:50 10° NW 19:58:26 84° NE 20:06:45 13° SE
Cosmos 2181 Rocket 4.4 19:53:25 10° NNW 19:59:28 64° W 20:05:31 10° S
Meteor 2-5 Rocket 3.6 19:55:17 10° N 20:00:50 87° E 20:06:24 10° S
ERS-1 Rocket 3.4 19:57:46 17° SE 20:01:16 41° ENE 20:05:58 10° N
Cosmos 1933 Rocket 4.0 19:58:41 10° SSE 20:02:43 38° E 20:06:47 10° NNE
Okean 1-7 4.0 20:01:11 10° NNW 20:05:08 46° W 20:09:03 10° SSW
Nadezhda 3 Rocket 3.9 20:00:06 10° N 20:06:18 78° E 20:12:26 10° S
Cosmos 1441 Rocket 4.0 20:06:12 10° NNW 20:09:26 44° W 20:12:37 10° SSW
Cosmos 1943 Rocket 3.7 20:06:37 10° N 20:10:47 20° NE 20:12:59 17° E
Meteor 1-12 Rocket 4.3 20:06:04 10° S 20:11:56 63° E 20:17:52 10° NNE
Helios 1A Rocket 2.5 20:10:21 10° N 20:13:35 72° WNW 20:16:46 10° SSW
Cosmos 2154 Rocket 4.3 20:10:26 10° SSW 20:16:41 70° W 20:23:02 10° N
Okean-O 3.7 20:20:35 25° E 20:21:11 26° ENE 20:24:48 10° NNE
Cosmos 2228 Rocket 4.2 20:18:03 10° NNW 20:22:19 45° W 20:26:32 10° SSW
Exosat Rocket 4.4 20:18:14 10° NNW 20:24:08 79° WSW 20:32:11 11° SSE
Cosmos 962 Rocket 4.5 20:18:19 10° S 20:24:27 60° E 20:30:34 10° NNE
BlueWalker 3 4.0 20:22:17 10° W 20:24:51 19° SW 20:26:52 12° SSW
Cosmos 2360 Rocket 3.9 20:20:04 10° WSW 20:25:09 35° WNW 20:30:18 10° N
CBERS 1 LM4 rocket 4.2 20:24:04 25° SSE 20:26:49 74° ENE 20:31:31 10° N
Meteor 2-19 Rocket 4.4 20:25:43 10° N 20:31:55 85° E 20:36:43 17° S
Cosmos 1869 Rocket 3.5 20:30:47 32° SSE 20:32:38 59° E 20:36:57 10° NNE
Cosmos 2322 Rocket 4.3 20:28:30 10° WSW 20:33:16 28° NW 20:38:04 10° N
ADEOS 3.5 20:32:48 29° SSE 20:35:31 74° ENE 20:40:44 10° N
Terra 1.7 20:34:16 32° SSE 20:36:26 79° ENE 20:41:08 10° N
CZ-4 R/B 2.2 20:35:04 16° SSW 20:37:55 44° W 20:41:33 10° NNW
Feng Yun 1-1 Rocket 4.4 20:34:14 16° S 20:38:48 75° WSW 20:44:20 10° NNW
BREEZE-M DEB (TANK) 4.0 20:37:45 10° WSW 20:41:17 76° NNW 20:54:29 10° ENE
MOS 1 4.3 20:38:41 21° S 20:42:36 80° WSW 20:48:16 10° NNW
Okean O Rocket 1.9 20:43:57 46° E 20:44:13 47° ENE 20:48:24 10° N
Cosmos 2237 Rocket 3.6 20:47:31 22° ENE 20:47:31 22° ENE 20:50:02 10° NE
Atlas Centaur 2 4.4 20:43:35 10° SW 20:47:04 15° SSW 20:48:59 14° S
Cosmos 2322 3.6 20:43:20 10° SSW 20:49:02 86° ESE 20:54:48 10° NNE
SL-08 R/B 3.3 20:45:09 10° NNE 20:50:03 89° WNW 20:53:56 17° SSW
Tiangong 0.7 20:49:13 10° SW 20:49:44 11° SW 20:49:44 11° SW
ASTEX 1 4.3 20:50:47 32° ENE 20:50:47 32° ENE 20:54:43 10° NNE
Cosmos 2341 Rocket 3.9 20:46:43 20° S 20:51:13 74° E 20:57:29 10° N
IRS-1A Rocket 4.1 20:52:14 39° SSE 20:54:22 84° ENE 21:00:01 10° NNW
Cosmos 864 Rocket 4.4 20:51:53 23° S 20:55:57 76° E 21:02:12 10° N
Meteor 1-21 Rocket 4.2 20:54:31 10° N 21:00:06 65° ENE 21:01:08 54° SE
BREEZE-M DEB (TANK) 4.0 20:57:47 10° WNW 20:59:23 25° W 20:59:23 25° W
Cosmos 1680 Rocket 3.5 20:56:05 10° NNW 21:01:17 80° WSW 21:02:37 51° S
Cosmos 2219 Rocket 4.1 20:56:51 10° WSW 21:01:41 29° NW 21:06:31 10° N
SPOT 3 Rocket 4.3 21:02:10 37° ENE 21:02:10 37° ENE 21:06:48 10° N
Meteor 2-14 Rocket 4.3 21:02:35 10° N 21:08:42 72° E 21:09:57 56° SE
SL-24 R/B - RUBIN 2 3.6 21:11:46 10° NW 21:16:05 79° W 21:16:05 79° W
SL-8 Rocket 4.3 21:13:34 16° SSW 21:18:37 66° W 21:24:53 10° N
Cosmos 2112 Rocket 4.1 21:13:42 10° NNW 21:18:52 67° WSW 21:19:33 60° SSW
COSMOS 2428 3.1 21:13:13 10° SW 21:18:53 64° WNW 21:24:35 10° NNE
CZ-4B R/B 4.1 21:16:58 25° SSW 21:19:44 44° W 21:25:04 10° NNW
NOSS 0 Rocket 3.8 21:16:03 13° SSW 21:21:46 88° ESE 21:28:03 10° NNE
Ariane Rocket 3.7 21:26:52 41° NE 21:26:52 41° NE 21:30:44 10° N
NOSS 2-3 (E) 4.5 21:22:33 10° NW 21:28:00 74° WSW 21:29:04 61° S
Cosmos 1727 Rocket 4.1 21:22:17 10° N 21:28:33 58° E 21:28:33 58° E
Cosmos 2366 rocket 4.4 21:24:35 21° SSW 21:28:42 60° W 21:34:46 10° N
Cosmos 1241 Rocket 4.3 21:23:29 10° NNW 21:29:48 89° WSW 21:30:29 73° SSE
Cosmos 2278 Rocket 2.3 21:24:12 10° NNW 21:29:39 64° NE 21:29:39 64° NE
USA 238 DEB 4.4 21:23:24 10° NNW 21:30:38 50° NE 21:32:16 44° E
USA 238 4.4 21:23:35 10° NNW 21:30:47 50° NE 21:32:26 44° E
NOSS 2-3 (C) 4.4 21:26:21 10° NW 21:31:47 89° SW 21:32:30 73° SSE
Lacrosse 5 rocket 3.7 21:31:30 10° WNW 21:33:26 15° NNW 21:34:04 14° NNW
Spot 2 Rocket 3.9 21:33:58 52° WSW 21:34:23 54° W 21:39:19 10° NNW
USA 32 4.3 21:34:21 58° WSW 21:34:59 63° W 21:40:12 10° N
Cosmos 1943 Rocket 2.5 21:49:23 10° NNW 21:54:29 62° WNW 21:54:29 62° WNW
Okean-O 4.4 21:57:55 27° W 21:57:55 27° W 22:01:08 10° NW
SeaSat 1 4.0 21:59:30 27° NNE 21:59:30 27° NNE 22:02:24 10° N
CZ-4B R/B 4.3 22:00:12 46° NW 22:00:12 46° NW 22:03:42 10° NNW
Cosmos 2123 Rocket 4.5 21:58:56 10° N 22:03:50 50° NNE 22:03:50 50° NNE
USA 59 Rocket 2.6 22:02:28 10° N 22:02:49 12° N 22:02:49 12° N
NOSS 3-4 (A) 4.0 22:10:29 45° N 22:10:29 45° N 22:14:47 10° NNE
NOSS 3-4 (C) 4.0 22:11:02 45° N 22:11:02 45° N 22:15:19 10° NNE
Okean O Rocket 4.2 22:21:11 15° W 22:21:11 15° W 22:23:14 10° NW
Timation 2 Rocket 4.5 22:15:53 10° NNW 22:21:16 56° WNW 22:21:16 56° WNW
Cosmos 2237 Rocket 3.3 22:29:12 41° NW 22:29:12 41° NW 22:34:27 10° N
Cosmos 2369 Rocket 3.9 22:59:57 10° NNW 23:02:43 28° N 23:02:43 28° N
SL-16 R/B 4.1 23:39:53 25° N 23:39:53 25° N 23:42:30 10° N
